TimeCDT,TemperatureF,Dew PointF,Humidity,Sea Level PressureIn,VisibilityMPH,Wind Direction,Wind SpeedMPH,Gust SpeedMPH,PrecipitationIn,Events,Conditions,WindDirDegrees,DateUTC
12:53 AM,70.0,46.0,42,29.93,10.0,North,6.9,-,N/A,,Scattered Clouds,360,2012-09-20 05:53:00
1:53 AM,71.1,45.0,39,29.95,10.0,NNE,11.5,-,N/A,,Scattered Clouds,20,2012-09-20 06:53:00
2:53 AM,69.1,43.0,39,29.97,10.0,NNE,8.1,-,N/A,,Scattered Clouds,20,2012-09-20 07:53:00
3:53 AM,66.0,42.1,42,29.96,10.0,NNE,11.5,-,N/A,,Scattered Clouds,20,2012-09-20 08:53:00
4:53 AM,62.6,42.8,48,30.00,10.0,NE,6.9,-,N/A,,Partly Cloudy,40,2012-09-20 09:53:00
5:53 AM,62.1,41.0,46,29.97,10.0,ENE,8.1,-,N/A,,Partly Cloudy,60,2012-09-20 10:53:00
6:53 AM,60.1,41.0,49,29.99,10.0,NE,6.9,-,N/A,,Partly Cloudy,50,2012-09-20 11:53:00
7:53 AM,60.1,41.0,49,30.02,10.0,ENE,6.9,-,N/A,,Scattered Clouds,60,2012-09-20 12:53:00
8:53 AM,64.9,41.0,42,30.02,10.0,ENE,9.2,-,N/A,,Mostly Cloudy,60,2012-09-20 13:53:00
9:53 AM,69.1,37.9,32,30.03,10.0,ENE,12.7,-,N/A,,Mostly Cloudy,70,2012-09-20 14:53:00
10:53 AM,73.0,39.9,30,30.03,10.0,East,11.5,-,N/A,,Mostly Cloudy,90,2012-09-20 15:53:00
11:53 AM,77.0,39.9,26,30.02,10.0,East,11.5,-,N/A,,Mostly Cloudy,90,2012-09-20 16:53:00
12:53 PM,80.1,39.9,24,30.01,10.0,East,11.5,17.3,N/A,,Scattered Clouds,90,2012-09-20 17:53:00
1:53 PM,80.1,39.0,23,29.99,10.0,ESE,6.9,16.1,N/A,,Scattered Clouds,110,2012-09-20 18:53:00
2:53 PM,82.0,39.0,22,29.97,10.0,ESE,10.4,-,N/A,,Scattered Clouds,110,2012-09-20 19:53:00
3:53 PM,82.0,39.0,22,29.96,10.0,East,10.4,-,N/A,,Scattered Clouds,90,2012-09-20 20:53:00
4:53 PM,81.0,39.9,23,29.95,10.0,East,9.2,-,N/A,,Mostly Cloudy,90,2012-09-20 21:53:00
5:53 PM,80.1,41.0,25,29.94,10.0,ESE,12.7,-,N/A,,Mostly Cloudy,110,2012-09-20 22:53:00
6:53 PM,77.0,41.0,28,29.94,10.0,ESE,9.2,-,N/A,,Mostly Cloudy,110,2012-09-20 23:53:00
7:53 PM,73.0,42.1,33,29.94,10.0,East,6.9,-,N/A,,Mostly Cloudy,90,2012-09-21 00:53:00
8:53 PM,71.1,44.1,38,29.94,10.0,East,6.9,-,N/A,,Mostly Cloudy,100,2012-09-21 01:53:00
9:53 PM,69.1,44.1,40,29.95,10.0,East,6.9,-,N/A,,Scattered Clouds,100,2012-09-21 02:53:00
10:53 PM,66.0,45.0,47,29.96,10.0,East,5.8,-,N/A,,Scattered Clouds,90,2012-09-21 03:53:00
11:53 PM,66.0,45.0,47,29.94,10.0,ESE,8.1,-,N/A,,Scattered Clouds,120,2012-09-21 04:53:00